SUL6800 SBBR-SBGR

Flight info

Callsign SUL6800
Flight time 1h 13m
Altitude 36000
Route ENRUR UZ38 VUNOX
Aircraft B738/M-SDFGIKLORWX/LB1

Departure

Time 2026-05-04 01:20
Airport Presidente Juscelino Kubitschek International Airport (SBBR)

Arrival

Time 2026-05-04 02:33
Airport São Paulo/Guarulhos–Governor André Franco Montoro International Airport (SBGR)
Time Latitude Longitude Altitude Speed Heading
2026-05-04 00:39 -15.86857 -47.92691 3467 ft 0 kts 176°
2026-05-04 01:10 -15.86840 -47.92693 3467 ft 4 kts 176°
2026-05-04 01:11 -15.86816 -47.92696 3464 ft 4 kts 147°
2026-05-04 01:11 -15.86804 -47.92715 3467 ft 4 kts 90°
2026-05-04 01:11 -15.86805 -47.92731 3466 ft 1 kts 86°
2026-05-04 01:11 -15.86805 -47.92733 3466 ft 0 kts 86°
2026-05-04 01:15 -15.86805 -47.92727 3466 ft 2 kts 86°
2026-05-04 01:15 -15.86804 -47.92709 3467 ft 3 kts 86°
2026-05-04 01:15 -15.86802 -47.92686 3467 ft 4 kts 86°
2026-05-04 01:16 -15.86800 -47.92654 3467 ft 5 kts 87°
2026-05-04 01:16 -15.86798 -47.92612 3467 ft 7 kts 85°
2026-05-04 01:16 -15.86793 -47.92560 3468 ft 8 kts 81°
2026-05-04 01:16 -15.86765 -47.92517 3470 ft 7 kts 36°
2026-05-04 01:17 -15.86721 -47.92491 3471 ft 7 kts 28°
2026-05-04 01:17 -15.86672 -47.92464 3470 ft 9 kts 28°
2026-05-04 01:17 -15.86613 -47.92431 3470 ft 11 kts 28°
2026-05-04 01:17 -15.86541 -47.92386 3467 ft 14 kts 41°
2026-05-04 01:18 -15.86476 -47.92304 3467 ft 16 kts 55°
2026-05-04 01:18 -15.86412 -47.92207 3466 ft 17 kts 56°
2026-05-04 01:18 -15.86328 -47.92119 3465 ft 1 kts 34°
2026-05-04 01:18 -15.86323 -47.92115 3465 ft 1 kts 39°
2026-05-04 01:19 -15.86317 -47.92106 3464 ft 2 kts 60°
2026-05-04 01:19 -15.86315 -47.92086 3466 ft 4 kts 84°
2026-05-04 01:19 -15.86311 -47.92047 3466 ft 9 kts 85°
2026-05-04 01:19 -15.86294 -47.91770 3462 ft 76 kts 86°
2026-05-04 01:20 -15.86242 -47.90973 3475 ft 141 kts 86°
2026-05-04 01:20 -15.86153 -47.89810 3710 ft 177 kts 88°
2026-05-04 01:20 -15.86087 -47.88544 4598 ft 173 kts 97°
2026-05-04 01:20 -15.86578 -47.87456 5541 ft 170 kts 134°
2026-05-04 01:21 -15.87709 -47.86829 5946 ft 202 kts 154°
2026-05-04 01:21 -15.89113 -47.86284 6152 ft 229 kts 156°
2026-05-04 01:21 -15.90688 -47.85687 6444 ft 251 kts 156°
2026-05-04 01:21 -15.92408 -47.85022 6732 ft 274 kts 156°
2026-05-04 01:22 -15.94213 -47.84311 7493 ft 279 kts 156°
2026-05-04 01:22 -15.96033 -47.83580 8364 ft 282 kts 155°
2026-05-04 01:22 -15.97871 -47.82828 9209 ft 287 kts 155°
2026-05-04 01:22 -15.99740 -47.82053 10034 ft 292 kts 155°
2026-05-04 01:23 -16.01652 -47.81250 10615 ft 305 kts 155°
2026-05-04 01:23 -16.03705 -47.80377 10754 ft 331 kts 155°
2026-05-04 01:23 -16.05912 -47.79436 11045 ft 351 kts 155°
2026-05-04 01:23 -16.08197 -47.78461 11627 ft 358 kts 155°
2026-05-04 01:24 -16.10518 -47.77482 12310 ft 363 kts 158°
2026-05-04 01:24 -16.12959 -47.76734 12971 ft 368 kts 165°
2026-05-04 01:24 -16.15467 -47.76114 13616 ft 372 kts 165°
2026-05-04 01:24 -16.18001 -47.75499 14195 ft 376 kts 166°
2026-05-04 01:25 -16.20563 -47.74879 14740 ft 380 kts 166°
2026-05-04 01:25 -16.23113 -47.74263 15277 ft 383 kts 166°
2026-05-04 01:25 -16.25720 -47.73633 15796 ft 387 kts 166°
2026-05-04 01:25 -16.28355 -47.72996 16314 ft 391 kts 167°
2026-05-04 01:26 -16.31015 -47.72352 16841 ft 394 kts 167°
2026-05-04 01:26 -16.33706 -47.71700 17361 ft 398 kts 167°
2026-05-04 01:26 -16.36418 -47.71043 17884 ft 401 kts 167°
2026-05-04 01:26 -16.39154 -47.70380 18396 ft 405 kts 167°
2026-05-04 01:27 -16.41914 -47.69710 18828 ft 408 kts 168°
2026-05-04 01:27 -16.44691 -47.69036 19262 ft 411 kts 168°
2026-05-04 01:27 -16.47451 -47.68365 19707 ft 414 kts 168°
2026-05-04 01:27 -16.50271 -47.67680 20151 ft 416 kts 168°
2026-05-04 01:28 -16.53102 -47.66992 20579 ft 419 kts 168°
2026-05-04 01:28 -16.55951 -47.66300 20999 ft 423 kts 168°
2026-05-04 01:28 -16.58825 -47.65601 21420 ft 425 kts 168°
2026-05-04 01:28 -16.61717 -47.64898 21837 ft 428 kts 168°
2026-05-04 01:29 -16.63648 -47.64428 22113 ft 430 kts 168°
2026-05-04 01:29 -16.66574 -47.63716 22517 ft 433 kts 168°
2026-05-04 01:29 -16.69519 -47.62999 22910 ft 436 kts 168°
2026-05-04 01:29 -16.72489 -47.62275 23303 ft 439 kts 168°
2026-05-04 01:30 -16.75474 -47.61548 23690 ft 442 kts 168°
2026-05-04 01:30 -16.78470 -47.60818 24009 ft 444 kts 168°
2026-05-04 01:30 -16.81493 -47.60081 24341 ft 445 kts 168°
2026-05-04 01:30 -16.84517 -47.59343 24702 ft 447 kts 168°
2026-05-04 01:31 -16.87549 -47.58604 25039 ft 448 kts 168°
2026-05-04 01:31 -16.90596 -47.57860 25363 ft 450 kts 169°
2026-05-04 01:31 -16.93653 -47.57114 25687 ft 452 kts 169°
2026-05-04 01:31 -16.96680 -47.56375 26002 ft 454 kts 169°
2026-05-04 01:32 -16.99758 -47.55623 26345 ft 454 kts 169°
2026-05-04 01:32 -17.02838 -47.54870 26692 ft 456 kts 169°
2026-05-04 01:32 -17.05934 -47.54113 26982 ft 458 kts 169°
2026-05-04 01:32 -17.09040 -47.53354 27260 ft 460 kts 169°
2026-05-04 01:33 -17.12163 -47.52590 27551 ft 461 kts 169°
2026-05-04 01:33 -17.15298 -47.51824 27831 ft 463 kts 169°
2026-05-04 01:33 -17.18445 -47.51053 28119 ft 465 kts 169°
2026-05-04 01:33 -17.21602 -47.50280 28408 ft 466 kts 169°
2026-05-04 01:34 -17.24767 -47.49505 28684 ft 468 kts 169°
2026-05-04 01:34 -17.27941 -47.48727 28941 ft 470 kts 169°
2026-05-04 01:34 -17.31135 -47.47945 29197 ft 472 kts 169°
2026-05-04 01:34 -17.34334 -47.47160 29448 ft 473 kts 169°
2026-05-04 01:35 -17.37514 -47.46380 29731 ft 474 kts 170°
2026-05-04 01:35 -17.40722 -47.45592 30121 ft 473 kts 170°
2026-05-04 01:35 -17.43918 -47.44807 30502 ft 470 kts 170°
2026-05-04 01:35 -17.47104 -47.44024 30843 ft 470 kts 170°
2026-05-04 01:36 -17.50287 -47.43242 31100 ft 471 kts 170°
2026-05-04 01:36 -17.53478 -47.42458 31396 ft 471 kts 170°
2026-05-04 01:36 -17.56665 -47.41674 31749 ft 469 kts 170°
2026-05-04 01:36 -17.59842 -47.40893 32122 ft 467 kts 171°
2026-05-04 01:37 -17.63005 -47.40114 32455 ft 467 kts 171°
2026-05-04 01:37 -17.66163 -47.39337 32775 ft 466 kts 171°
2026-05-04 01:37 -17.69282 -47.38570 33116 ft 465 kts 171°
2026-05-04 01:37 -17.72432 -47.37794 33445 ft 465 kts 171°
2026-05-04 01:38 -17.75581 -47.37018 33762 ft 465 kts 171°
2026-05-04 01:38 -17.78734 -47.36241 34093 ft 464 kts 171°
2026-05-04 01:38 -17.81876 -47.35467 34381 ft 463 kts 171°
2026-05-04 01:38 -17.85018 -47.34692 34649 ft 463 kts 171°
2026-05-04 01:39 -17.88151 -47.33919 34894 ft 463 kts 171°
2026-05-04 01:39 -17.91293 -47.33144 35098 ft 464 kts 171°
2026-05-04 01:39 -17.94454 -47.32365 35086 ft 468 kts 171°
2026-05-04 01:40 -18.00775 -47.30802 35085 ft 465 kts 172°
2026-05-04 01:40 -18.07053 -47.29249 35086 ft 462 kts 172°
2026-05-04 01:41 -18.13315 -47.27699 35086 ft 461 kts 172°
2026-05-04 01:41 -18.19515 -47.26165 35090 ft 460 kts 172°
2026-05-04 01:42 -18.25760 -47.24619 35100 ft 461 kts 172°
2026-05-04 01:42 -18.32017 -47.23068 35106 ft 463 kts 172°
2026-05-04 01:43 -18.38296 -47.21511 35098 ft 464 kts 172°
2026-05-04 01:43 -18.44601 -47.19945 35110 ft 466 kts 172°
2026-05-04 01:44 -18.50927 -47.18373 35109 ft 467 kts 172°
2026-05-04 01:44 -18.57268 -47.16796 35113 ft 468 kts 172°
2026-05-04 01:45 -18.63588 -47.15223 35118 ft 470 kts 172°
2026-05-04 01:45 -18.73158 -47.12839 35119 ft 471 kts 172°
2026-05-04 01:46 -18.79545 -47.11246 35120 ft 471 kts 172°
2026-05-04 01:46 -18.85918 -47.09655 35123 ft 471 kts 172°
2026-05-04 01:47 -18.92303 -47.08060 35123 ft 471 kts 173°
2026-05-04 01:47 -18.98633 -47.06478 35121 ft 470 kts 173°
2026-05-04 01:48 -19.04993 -47.04887 35125 ft 469 kts 172°
2026-05-04 01:48 -19.11349 -47.03296 35121 ft 468 kts 173°
2026-05-04 01:49 -19.17690 -47.01708 35124 ft 468 kts 173°
2026-05-04 01:49 -19.24027 -47.00119 35131 ft 468 kts 173°
2026-05-04 01:50 -19.30357 -46.98531 35141 ft 467 kts 173°
2026-05-04 01:50 -19.36686 -46.96941 35169 ft 467 kts 173°
2026-05-04 01:51 -19.43019 -46.95350 35180 ft 467 kts 173°
2026-05-04 01:51 -19.49314 -46.93766 35188 ft 468 kts 173°
2026-05-04 01:52 -19.55652 -46.92171 35175 ft 468 kts 173°
2026-05-04 01:52 -19.61991 -46.90574 35190 ft 469 kts 173°
2026-05-04 01:53 -19.68344 -46.88972 35173 ft 469 kts 173°
2026-05-04 01:53 -19.74701 -46.87368 35138 ft 469 kts 173°
2026-05-04 01:54 -19.81021 -46.85772 35148 ft 469 kts 173°
2026-05-04 01:54 -19.87382 -46.84164 35139 ft 469 kts 173°
2026-05-04 01:55 -19.93738 -46.82556 35136 ft 469 kts 173°
2026-05-04 01:55 -20.00086 -46.80949 35149 ft 469 kts 173°
2026-05-04 01:56 -20.06399 -46.79349 35157 ft 469 kts 173°
2026-05-04 01:56 -20.12757 -46.77738 35145 ft 470 kts 173°
2026-05-04 01:57 -20.19111 -46.76124 35131 ft 469 kts 173°
2026-05-04 01:57 -20.25462 -46.74510 35142 ft 467 kts 173°
2026-05-04 01:58 -20.31792 -46.72901 35143 ft 468 kts 173°
2026-05-04 01:58 -20.38124 -46.71290 35132 ft 467 kts 173°
2026-05-04 01:59 -20.44444 -46.69680 35129 ft 466 kts 173°
2026-05-04 01:59 -20.50712 -46.68083 35151 ft 466 kts 174°
2026-05-04 02:00 -20.57024 -46.66474 35146 ft 467 kts 174°
2026-05-04 02:00 -20.63343 -46.64860 35149 ft 467 kts 174°
2026-05-04 02:01 -20.69670 -46.63244 35141 ft 467 kts 173°
2026-05-04 02:01 -20.76001 -46.61625 35150 ft 467 kts 174°
2026-05-04 02:02 -20.82326 -46.60006 35149 ft 467 kts 174°
2026-05-04 02:02 -20.88589 -46.58400 35161 ft 465 kts 174°
2026-05-04 02:03 -20.94892 -46.56784 35176 ft 466 kts 174°
2026-05-04 02:03 -21.01213 -46.55163 35157 ft 466 kts 174°
2026-05-04 02:04 -21.07517 -46.53543 35164 ft 466 kts 174°
2026-05-04 02:04 -21.13825 -46.51922 35164 ft 466 kts 174°
2026-05-04 02:05 -21.20086 -46.50310 35178 ft 466 kts 174°
2026-05-04 02:05 -21.26399 -46.48685 35167 ft 466 kts 174°
2026-05-04 02:06 -21.32702 -46.47060 35162 ft 466 kts 174°
2026-05-04 02:06 -21.39003 -46.45433 35181 ft 465 kts 174°
2026-05-04 02:07 -21.45301 -46.43808 35173 ft 466 kts 174°
2026-05-04 02:07 -21.51611 -46.42178 35180 ft 465 kts 174°
2026-05-04 02:08 -21.57920 -46.40547 34524 ft 476 kts 174°
2026-05-04 02:08 -21.61149 -46.39716 33815 ft 477 kts 174°
2026-05-04 02:08 -21.64373 -46.38881 33264 ft 475 kts 174°
2026-05-04 02:09 -21.67586 -46.38045 32695 ft 472 kts 174°
2026-05-04 02:09 -21.70763 -46.37216 32223 ft 468 kts 174°
2026-05-04 02:09 -21.73923 -46.36393 31733 ft 464 kts 174°
2026-05-04 02:09 -21.77051 -46.35580 31266 ft 460 kts 174°
2026-05-04 02:10 -21.80150 -46.34775 30780 ft 457 kts 174°
2026-05-04 02:10 -21.83202 -46.33983 30327 ft 455 kts 174°
2026-05-04 02:10 -21.86269 -46.33187 29760 ft 452 kts 174°
2026-05-04 02:10 -21.89314 -46.32396 29257 ft 448 kts 174°
2026-05-04 02:11 -21.92332 -46.31611 28755 ft 444 kts 174°
2026-05-04 02:11 -21.95322 -46.30833 28252 ft 440 kts 174°
2026-05-04 02:11 -21.98291 -46.30061 27788 ft 436 kts 174°
2026-05-04 02:11 -22.01223 -46.29298 27307 ft 433 kts 173°
2026-05-04 02:12 -22.04144 -46.28537 26843 ft 429 kts 173°
2026-05-04 02:12 -22.07043 -46.27783 26337 ft 428 kts 173°
2026-05-04 02:12 -22.09923 -46.27033 25854 ft 425 kts 173°
2026-05-04 02:12 -22.12797 -46.26284 25367 ft 423 kts 173°
2026-05-04 02:13 -22.15642 -46.25542 24903 ft 420 kts 173°
2026-05-04 02:13 -22.18478 -46.24802 24437 ft 417 kts 173°
2026-05-04 02:13 -22.21295 -46.24067 23966 ft 416 kts 172°
2026-05-04 02:13 -22.24098 -46.23335 23450 ft 414 kts 172°
2026-05-04 02:14 -22.26854 -46.22614 22990 ft 410 kts 172°
2026-05-04 02:14 -22.29611 -46.21893 22516 ft 406 kts 172°
2026-05-04 02:14 -22.32356 -46.21390 22049 ft 393 kts 185°
2026-05-04 02:14 -22.35024 -46.21716 21623 ft 382 kts 194°
2026-05-04 02:15 -22.37640 -46.22171 21153 ft 380 kts 194°
2026-05-04 02:15 -22.40245 -46.22608 20711 ft 378 kts 193°
2026-05-04 02:15 -22.42841 -46.23027 20265 ft 376 kts 193°
2026-05-04 02:15 -22.45421 -46.23433 19820 ft 374 kts 193°
2026-05-04 02:16 -22.47996 -46.23834 19369 ft 373 kts 193°
2026-05-04 02:16 -22.50558 -46.24231 18927 ft 371 kts 192°
2026-05-04 02:16 -22.53110 -46.24627 18468 ft 370 kts 192°
2026-05-04 02:16 -22.55652 -46.25021 18118 ft 364 kts 192°
2026-05-04 02:17 -22.58135 -46.25403 17889 ft 356 kts 192°
2026-05-04 02:17 -22.59746 -46.25653 17753 ft 351 kts 192°
2026-05-04 02:17 -22.62146 -46.26025 17546 ft 345 kts 192°
2026-05-04 02:17 -22.65281 -46.26514 17293 ft 345 kts 192°
2026-05-04 02:18 -22.67676 -46.26890 17103 ft 350 kts 192°
2026-05-04 02:18 -22.70105 -46.27269 16899 ft 353 kts 192°
2026-05-04 02:18 -22.71740 -46.27523 16758 ft 351 kts 192°
2026-05-04 02:18 -22.74116 -46.27892 16551 ft 348 kts 192°
2026-05-04 02:19 -22.76508 -46.28263 16381 ft 347 kts 192°
2026-05-04 02:19 -22.78840 -46.28835 16113 ft 342 kts 207°
2026-05-04 02:19 -22.80929 -46.30046 15814 ft 341 kts 213°
2026-05-04 02:19 -22.82982 -46.31345 15474 ft 341 kts 213°
2026-05-04 02:20 -22.85033 -46.32649 15147 ft 341 kts 213°
2026-05-04 02:20 -22.87075 -46.33941 14808 ft 338 kts 213°
2026-05-04 02:20 -22.89100 -46.35213 14481 ft 335 kts 213°
2026-05-04 02:20 -22.91109 -46.36469 14146 ft 332 kts 213°
2026-05-04 02:21 -22.93107 -46.37714 13786 ft 330 kts 213°
2026-05-04 02:21 -22.95086 -46.38945 13449 ft 326 kts 212°
2026-05-04 02:21 -22.97043 -46.40163 13114 ft 323 kts 212°
2026-05-04 02:21 -22.98993 -46.41374 12799 ft 322 kts 212°
2026-05-04 02:22 -23.00946 -46.42588 12487 ft 324 kts 212°
2026-05-04 02:22 -23.02877 -46.43827 12336 ft 320 kts 213°
2026-05-04 02:22 -23.04783 -46.45097 12085 ft 322 kts 214°
2026-05-04 02:22 -23.06678 -46.46372 11804 ft 325 kts 214°
2026-05-04 02:23 -23.08600 -46.47665 11509 ft 326 kts 214°
2026-05-04 02:23 -23.10531 -46.48960 11227 ft 324 kts 214°
2026-05-04 02:23 -23.12439 -46.50238 10921 ft 320 kts 214°
2026-05-04 02:23 -23.14325 -46.51499 10625 ft 316 kts 214°
2026-05-04 02:24 -23.16184 -46.52742 10341 ft 312 kts 214°
2026-05-04 02:24 -23.18012 -46.53963 10184 ft 305 kts 214°
2026-05-04 02:24 -23.19783 -46.55146 10175 ft 292 kts 214°
2026-05-04 02:24 -23.21468 -46.56272 10085 ft 285 kts 214°
2026-05-04 02:25 -23.23142 -46.57393 9852 ft 281 kts 214°
2026-05-04 02:25 -23.24804 -46.58505 9532 ft 278 kts 214°
2026-05-04 02:25 -23.26450 -46.59607 9088 ft 278 kts 214°
2026-05-04 02:25 -23.28102 -46.60714 8663 ft 278 kts 213°
2026-05-04 02:26 -23.29744 -46.61814 8249 ft 277 kts 214°
2026-05-04 02:26 -23.31368 -46.62902 7971 ft 273 kts 213°
2026-05-04 02:26 -23.32984 -46.63984 7702 ft 273 kts 213°
2026-05-04 02:26 -23.34617 -46.65080 7261 ft 280 kts 212°
2026-05-04 02:27 -23.36266 -46.66186 6922 ft 276 kts 212°
2026-05-04 02:27 -23.37852 -46.67248 6816 ft 258 kts 212°
2026-05-04 02:27 -23.39329 -46.68238 6690 ft 242 kts 212°
2026-05-04 02:27 -23.40729 -46.69148 6459 ft 230 kts 205°
2026-05-04 02:28 -23.42278 -46.69377 6051 ft 222 kts 167°
2026-05-04 02:28 -23.43643 -46.68690 5646 ft 212 kts 139°
2026-05-04 02:28 -23.44619 -46.67518 5306 ft 206 kts 124°
2026-05-04 02:28 -23.45400 -46.66274 5047 ft 193 kts 123°
2026-05-04 02:29 -23.46118 -46.65106 4853 ft 178 kts 123°
2026-05-04 02:29 -23.46781 -46.64034 4652 ft 163 kts 123°
2026-05-04 02:29 -23.47270 -46.62983 4542 ft 150 kts 98°
2026-05-04 02:29 -23.47210 -46.61876 4546 ft 144 kts 84°
2026-05-04 02:30 -23.47048 -46.60821 4486 ft 139 kts 84°
2026-05-04 02:30 -23.46858 -46.59759 4303 ft 145 kts 80°
2026-05-04 02:30 -23.46603 -46.58724 4195 ft 138 kts 77°
2026-05-04 02:30 -23.46334 -46.57718 4087 ft 139 kts 77°
2026-05-04 02:31 -23.46060 -46.56709 3900 ft 141 kts 77°
2026-05-04 02:31 -23.45784 -46.55701 3762 ft 136 kts 78°
2026-05-04 02:31 -23.45516 -46.54715 3586 ft 135 kts 77°
2026-05-04 02:31 -23.45244 -46.53712 3418 ft 141 kts 76°
2026-05-04 02:32 -23.44961 -46.52676 3221 ft 143 kts 76°
2026-05-04 02:32 -23.44685 -46.51662 3009 ft 141 kts 75°
2026-05-04 02:32 -23.44413 -46.50655 2845 ft 136 kts 73°
2026-05-04 02:32 -23.44141 -46.49668 2683 ft 139 kts 75°
2026-05-04 02:33 -23.43864 -46.48639 2503 ft 143 kts 73°
2026-05-04 02:33 -23.43594 -46.47667 2470 ft 119 kts 81°
2026-05-04 02:33 -23.43456 -46.47135 2467 ft 44 kts 73°
2026-05-04 02:33 -23.43306 -46.46870 2464 ft 39 kts 45°
2026-05-04 02:34 -23.43196 -46.46755 2469 ft 9 kts 43°
2026-05-04 02:34 -23.43147 -46.46715 2467 ft 9 kts 21°
2026-05-04 02:34 -23.43087 -46.46719 2467 ft 9 kts 346°
2026-05-04 02:34 -23.43024 -46.46739 2470 ft 10 kts 344°
2026-05-04 02:35 -23.42951 -46.46762 2467 ft 11 kts 344°
2026-05-04 02:35 -23.42876 -46.46785 2466 ft 1 kts 342°
2026-05-04 02:35 -23.42871 -46.46787 2465 ft 1 kts 342°
2026-05-04 02:35 -23.42860 -46.46791 2467 ft 2 kts 342°
2026-05-04 02:36 -23.42838 -46.46798 2464 ft 4 kts 342°
2026-05-04 02:36 -23.42801 -46.46811 2467 ft 7 kts 339°
2026-05-04 02:36 -23.42774 -46.46866 2462 ft 11 kts 261°
2026-05-04 02:36 -23.42795 -46.46945 2472 ft 11 kts 253°
2026-05-04 02:37 -23.42818 -46.47033 2467 ft 14 kts 253°
2026-05-04 02:37 -23.42847 -46.47139 2465 ft 16 kts 253°
2026-05-04 02:37 -23.42882 -46.47267 2467 ft 19 kts 254°
2026-05-04 02:37 -23.42920 -46.47407 2467 ft 18 kts 253°
2026-05-04 02:38 -23.42956 -46.47543 2466 ft 20 kts 253°
2026-05-04 02:38 -23.42997 -46.47693 2468 ft 22 kts 253°
2026-05-04 02:38 -23.43039 -46.47849 2468 ft 21 kts 253°
2026-05-04 02:38 -23.43079 -46.48000 2464 ft 21 kts 253°
2026-05-04 02:39 -23.43119 -46.48147 2466 ft 20 kts 253°
2026-05-04 02:39 -23.43158 -46.48289 2469 ft 20 kts 253°
2026-05-04 02:39 -23.43190 -46.48442 2465 ft 22 kts 269°
2026-05-04 02:39 -23.43178 -46.48606 2464 ft 16 kts 276°
2026-05-04 02:40 -23.43167 -46.48722 2469 ft 12 kts 276°
2026-05-04 02:40 -23.43121 -46.48778 2464 ft 10 kts 359°
2026-05-04 02:40 -23.43092 -46.48778 2470 ft 2 kts 353°
2026-05-04 02:40 -23.43080 -46.48793 2469 ft 4 kts 292°
2026-05-04 02:41 -23.43071 -46.48829 2464 ft 6 kts 293°
2026-05-04 02:41 -23.43065 -46.48854 2466 ft 0 kts 276°
2026-05-04 02:41 -23.43065 -46.48856 2466 ft 0 kts 276°